Temp
52 48 46 53 53 51 48 46 46 52 56 46 49 51 56 60 53 53 54 53 53 53 57 57 56 57 56 56 56 58 60 59 59 59 57 56 55 55 55 54 53 53 53 52
47 45 51 49 48 45 46 44 45 50 53 46 48 48 55 58 53 52 51 51 50 51 54 54 54 55 54 54 53 53 53 54 54 58 59 59 57 55 54 53 52 52 52 51
45 47 48 45 45 42 44 42 43 44 48 50 46 44 50 57 51 49 49 49 49 49 49 51 51 52 52 51 52 52 51 50 50 52 55 55 54 52 51 51 50 51 51 51
46 49 44 43 42 46 38 49 46 42 40 35 45 32 47 52 45 46 47 48 49 49 50 50 50 51 50 51 52 53 52 50 50 49 51 52 51 51 51 51 49 49 50 49
43 42 41 40 44 47 42 46 43 43 39 39 41 33 45 49 44 45 47 47 47 48 48 48 49 50 51 51 51 52 52 52 51 49 48 48 49 48 49 49 48 47 47 48
45 48 45 46 47 46 46 43 42 41 38 26 37 38 39 46 45 50 48 47 47 47 49 50 50 51 50 51 51 51 51 50 51 51 49 47 47 48 48 47 47 47 48 48
42 42 46 46 42 44 42 39 28 25 24 25 37 34 41 48 47 48 46 46 47 48 48 49 48 48 48 48 48 50 49 48 49 50 50 50 49 48 47 47 47 47 47 47
36 33 40 46 43 41 40 38 29 21 24 29 35 27 41 41 45 49 49 47 47 47 47 47 48 48 48 48 48 47 47 47 48 48 48 49 49 49 50 49 47 47 48 49
36 35 42 42 44 44 38 32 41 29 29 22 32 40 38 40 40 43 43 44 45 46 46 47 48 49 48 48 47 46 46 46 46 46 47 47 47 47 47 49 51 51 50 49
37 30 38 40 43 44 39 43 29 30 18 18 28 33 35 35 36 39 41 43 45 46 46 47 48 48 48 48 48 48 47 46 46 46 46 46 45 46 47 47 46 47 49 51
39 33 35 38 37 37 35 31 32 34 31 21 20 28 41 39 42 39 42 45 46 45 46 46 46 48 48 48 48 47 46 45 44 44 45 44 43 44 44 43 44 44 45 46
39 33 28 34 40 39 36 34 35 25 24 30 26 27 42 41 42 44 43 45 47 46 46 46 46 47 47 47 47 47 46 45 44 44 44 43 43 42 40 38 39 41 39 40
35 29 23 28 33 35 30 36 34 32 25 23 20 26 39 38 39 42 42 43 43 43 44 45 45 44 45 45 45 46 46 45 44 44 43 41 40 38 34 33 34 35 33 33
37 29 26 24 30 34 27 32 33 27 20 24 25 27 36 37 35 38 41 44 43 42 42 43 43 43 44 43 43 43 43 44 44 42 41 37 36 35 33 32 32 32 32 32
33 22 25 26 29 29 28 27 28 24 23 19 25 24 29 33 33 33 37 41 41 41 40 40 39 40 40 39 39 36 37 40 41 39 34 32 32 32 31 31 30 31 32 32
30 24 22 17 27 27 21 26 27 27 25 25 26 25 37 40 41 35 33 33 35 34 34 34 34 34 34 33 33 33 33 33 37 34 31 32 30 29 28 29 27 29 30 31
25 24 18 17 21 19 14 24 27 27 28 25 19 26 34 31 32 32 33 33 32 33 33 33 33 32 33 32 33 30 30 32 30 31 30 28 29 27 27 28 27 27 28 31
22 21 23 16 15 8 28 32 30 27 28 31 29 30 33 29 33 34 32 32 32 31 32 32 32 30 32 32 28 27 27 27 27 28 29 28 26 24 26 26 25 28 31 30
27 24 19 13 15 21 25 31 29 25 24 34 33 34 36 37 36 34 34 33 32 32 32 32 30 28 26 24 24 22 23 24 23 25 28 30 28 25 25 24 26 30 31 32
22 23 19 17 10 8 26 34 32 32 18 36 35 35 35 36 25 31 31 33 31 30 27 25 25 25 20 22 23 22 22 23 23 26 27 30 29 26 25 28 28 31 31 31
14 16 13 15 13 18 31 33 32 14 19 32 34 34 34 31 32 32 32 31 32 29 26 28 23 20 20 21 22 22 23 24 26 27 28 29 29 27 28 29 31 30 30 31
17 15 15 16 12 9 33 28 20 21 27 28 28 30 27 30 32 32 32 30 29 27 25 25 24 22 20 20 25 24 26 25 26 27 27 28 28 30 31 30 31 30 30 30
16 24 21 22 22 29 31 23 23 22 22 24 23 23 23 23 25 27 27 29 29 29 28 26 24 23 24 24 26 24 24 24 23 21 22 25 28 30 31 31 30 31 31 31
24 26 20 21 27 29 28 24 23 22 20 21 21 19 20 18 20 21 22 23 24 24 24 22 19 19 19 22 23 22 22 22 18 17 19 23 26 28 30 31 32 31 31 31
28 23 21 21 27 23 29 25 21 21 20 19 18 18 17 16 17 18 18 18 20 20 20 18 16 16 16 18 18 18 18 17 14 15 18 21 25 27 29 31 31 31 33 33
27 23 20 18 21 16 19 22 21 18 15 16 14 14 16 15 13 13 13 15 14 14 14 13 13 12 12 13 13 14 14 13 11 12 16 20 23 26 28 29 30 34 33 34
MSLP
1020.27 1019.75 1018.90 1018.25 1018.33 1018.47 1018.31 1017.79 1017.09 1016.65 1016.89 1017.46 1016.39 1015.44 1015.16 1015.38 1016.77 1017.02 1017.48 1017.94 1018.20 1018.44 1018.69 1018.87 1018.91 1018.77 1018.60 1018.22 1017.68 1017.17 1016.57 1016.24 1015.72 1015.53 1015.80 1015.94 1016.26 1016.48 1016.84 1017.02 1017.43 1017.81 1018.38 1019.35
1020.51 1019.54 1019.17 1019.66 1019.63 1019.43 1018.91 1018.21 1017.42 1017.03 1017.27 1017.83 1016.49 1015.22 1014.94 1014.91 1016.23 1017.24 1017.95 1018.47 1018.90 1019.10 1019.11 1019.31 1019.42 1019.26 1019.07 1018.90 1018.65 1018.15 1017.85 1017.32 1016.67 1016.18 1016.23 1016.22 1016.51 1016.83 1017.13 1017.35 1017.80 1018.11 1018.49 1019.02
1020.19 1020.02 1020.33 1020.31 1020.11 1019.98 1019.39 1018.87 1018.34 1017.99 1017.92 1017.59 1017.01 1015.03 1013.79 1014.11 1016.22 1017.73 1018.58 1019.11 1019.52 1019.75 1019.82 1019.88 1019.74 1019.77 1019.70 1019.43 1019.20 1018.81 1018.65 1018.37 1017.78 1017.23 1016.79 1017.03 1017.05 1017.17 1017.70 1017.95 1018.27 1018.53 1018.67 1019.06
1020.62 1020.59 1020.84 1020.73 1020.48 1020.23 1019.59 1019.05 1019.08 1019.05 1018.89 1017.73 1017.80 1015.35 1014.12 1014.23 1016.23 1017.53 1018.45 1019.03 1019.71 1020.08 1020.27 1020.42 1020.40 1020.22 1020.34 1020.12 1019.90 1019.44 1019.17 1018.91 1018.59 1018.32 1017.80 1017.42 1017.38 1017.49 1017.82 1018.08 1018.40 1018.72 1018.96 1019.42
1020.80 1021.04 1021.02 1020.78 1020.39 1020.36 1019.82 1019.92 1019.73 1019.66 1019.31 1018.51 1017.45 1017.27 1014.18 1014.78 1015.67 1016.85 1018.13 1019.19 1020.00 1020.56 1020.70 1020.77 1020.93 1020.77 1020.79 1020.78 1020.42 1020.09 1019.91 1019.54 1019.35 1019.18 1018.95 1018.59 1018.31 1018.22 1018.55 1018.58 1018.83 1019.21 1019.53 1019.88
1021.28 1021.62 1021.38 1020.75 1020.86 1020.91 1020.89 1020.72 1020.41 1020.27 1019.97 1018.69 1017.28 1016.73 1014.79 1014.76 1015.78 1016.15 1018.00 1019.36 1020.21 1020.76 1021.09 1021.12 1021.22 1021.28 1021.22 1021.24 1021.03 1020.79 1020.39 1020.23 1019.96 1019.59 1019.59 1019.56 1019.52 1019.24 1019.00 1019.29 1019.47 1019.66 1019.82 1020.13
1021.20 1021.06 1021.14 1021.44 1021.18 1021.24 1021.41 1021.12 1020.64 1020.22 1020.19 1018.41 1017.89 1017.16 1015.74 1015.99 1016.74 1017.11 1018.30 1019.52 1020.40 1020.89 1021.26 1021.43 1021.56 1021.57 1021.63 1021.55 1021.56 1021.32 1021.08 1020.88 1020.69 1020.32 1020.19 1020.19 1020.05 1019.90 1019.94 1019.87 1019.74 1019.88 1020.12 1020.30
1021.07 1020.84 1021.48 1021.48 1021.33 1021.06 1021.21 1021.55 1021.31 1020.28 1019.68 1018.87 1018.83 1017.64 1016.29 1017.72 1018.03 1018.16 1018.89 1019.88 1020.60 1020.96 1021.39 1021.68 1021.74 1021.77 1021.88 1021.86 1021.91 1021.89 1021.75 1021.55 1021.38 1021.14 1021.05 1020.84 1020.47 1020.40 1020.33 1020.25 1020.20 1020.33 1020.35 1020.29
1021.88 1021.64 1022.06 1022.23 1022.09 1022.07 1021.59 1021.74 1021.96 1021.73 1021.22 1020.83 1018.63 1017.34 1018.15 1018.38 1018.93 1019.41 1019.95 1020.43 1020.57 1020.98 1021.38 1021.57 1021.72 1021.77 1021.99 1022.19 1022.17 1022.20 1022.19 1022.18 1022.18 1021.96 1021.74 1021.36 1021.05 1020.96 1020.96 1020.89 1020.68 1020.59 1020.45 1020.39
1023.22 1022.78 1022.47 1022.72 1022.75 1022.44 1022.36 1022.47 1022.47 1022.51 1021.42 1019.84 1018.11 1017.31 1017.22 1018.13 1018.89 1019.69 1020.05 1020.17 1020.46 1020.94 1021.45 1021.66 1021.85 1021.98 1022.06 1022.32 1022.44 1022.39 1022.40 1022.45 1022.50 1022.43 1022.25 1022.09 1021.96 1021.75 1021.53 1021.36 1021.28 1021.20 1020.92 1020.56
1023.92 1023.86 1023.02 1023.12 1022.56 1022.13 1022.68 1022.80 1022.99 1022.68 1021.92 1020.36 1018.77 1017.10 1017.70 1018.03 1018.37 1019.13 1019.57 1019.82 1020.26 1020.93 1021.44 1021.75 1021.99 1022.05 1022.16 1022.35 1022.49 1022.59 1022.60 1022.65 1022.71 1022.76 1022.70 1022.66 1022.64 1022.64 1022.42 1022.15 1021.99 1021.78 1021.40 1021.13
1024.47 1024.54 1023.69 1022.92 1022.95 1023.28 1023.27 1022.96 1023.00 1022.86 1021.59 1020.55 1019.82 1017.52 1018.30 1018.62 1018.95 1019.08 1019.36 1019.68 1020.13 1020.85 1021.43 1021.80 1022.01 1022.13 1022.15 1022.26 1022.38 1022.55 1022.76 1022.84 1023.02 1023.02 1022.99 1023.04 1023.15 1023.18 1023.14 1023.11 1022.87 1022.53 1022.29 1022.07
1025.46 1025.39 1024.67 1023.14 1023.80 1023.76 1023.81 1023.22 1023.49 1023.39 1023.49 1021.58 1020.65 1018.34 1019.32 1019.72 1019.58 1019.60 1019.66 1019.96 1020.52 1021.20 1021.57 1021.86 1022.09 1022.22 1022.26 1022.42 1022.63 1022.68 1022.80 1022.93 1023.11 1023.21 1023.32 1023.43 1023.53 1023.58 1023.75 1023.71 1023.45 1023.20 1022.90 1022.64
1026.30 1026.14 1025.51 1024.56 1023.72 1023.97 1024.21 1023.94 1024.01 1024.30 1023.66 1021.95 1020.73 1019.55 1019.71 1019.77 1019.95 1020.07 1020.20 1020.34 1020.87 1021.52 1021.91 1022.21 1022.47 1022.54 1022.65 1022.76 1022.98 1023.05 1022.96 1022.96 1023.17 1023.32 1023.49 1023.76 1023.94 1024.04 1024.14 1023.98 1023.73 1023.48 1023.29 1022.94
1027.17 1026.83 1026.34 1025.58 1025.22 1025.16 1024.76 1024.49 1024.09 1023.94 1023.46 1023.33 1020.83 1020.66 1019.69 1020.02 1020.37 1020.66 1020.77 1020.77 1020.99 1021.50 1022.20 1022.65 1022.98 1023.15 1023.27 1023.30 1023.42 1023.54 1023.49 1023.34 1023.27 1023.34 1023.66 1023.95 1024.08 1024.16 1024.16 1024.04 1023.87 1023.57 1023.32 1023.03
1028.12 1027.29 1027.24 1026.23 1026.10 1025.74 1024.91 1024.27 1024.03 1023.44 1022.97 1022.55 1021.69 1020.18 1020.20 1020.15 1020.16 1020.66 1021.23 1021.62 1021.78 1022.20 1022.86 1023.11 1023.40 1023.60 1023.72 1023.79 1023.87 1023.78 1023.60 1023.59 1023.64 1023.58 1023.62 1023.83 1024.09 1024.15 1024.05 1023.92 1023.80 1023.60 1023.37 1023.06
1028.34 1028.07 1028.28 1026.74 1026.93 1026.43 1024.84 1023.34 1022.73 1022.36 1022.25 1022.51 1021.60 1019.99 1020.62 1020.49 1020.79 1021.15 1021.43 1021.99 1022.35 1022.65 1023.10 1023.46 1023.77 1024.01 1024.15 1024.18 1024.18 1024.08 1023.90 1023.72 1023.68 1023.63 1023.58 1023.76 1023.84 1023.89 1023.86 1023.88 1023.82 1023.61 1023.42 1023.19
1028.38 1028.65 1028.65 1027.80 1027.70 1025.78 1022.66 1023.13 1022.89 1022.60 1022.10 1021.61 1020.82 1020.81 1020.96 1021.05 1021.29 1021.61 1022.11 1022.31 1022.59 1022.98 1023.34 1023.74 1024.05 1024.25 1024.30 1024.33 1024.43 1024.40 1024.19 1023.79 1023.52 1023.46 1023.49 1023.46 1023.55 1023.71 1023.68 1023.70 1023.67 1023.50 1023.24 1023.05
1028.98 1029.00 1028.74 1028.24 1026.65 1024.51 1022.94 1022.14 1022.19 1022.39 1021.49 1021.42 1020.51 1020.33 1020.47 1020.51 1020.79 1021.23 1021.65 1022.36 1022.79 1023.11 1023.50 1023.92 1024.22 1024.52 1024.54 1024.57 1024.52 1024.41 1024.00 1023.80 1023.74 1023.40 1022.88 1022.47 1022.63 1023.08 1023.32 1023.51 1023.38 1023.17 1022.99 1022.75
1029.58 1029.58 1029.23 1027.88 1026.83 1024.58 1022.14 1022.45 1023.10 1023.10 1021.90 1021.36 1020.98 1020.65 1020.59 1020.66 1020.91 1021.16 1021.87 1022.49 1023.02 1023.34 1023.68 1024.13 1024.37 1024.61 1024.88 1024.79 1024.57 1024.30 1024.02 1023.75 1023.48 1023.25 1022.76 1022.40 1022.41 1022.56 1022.71 1022.75 1022.87 1022.82 1022.77 1022.55
1029.43 1029.24 1028.38 1027.17 1026.23 1024.21 1023.04 1023.27 1023.83 1024.21 1023.55 1022.85 1022.40 1021.97 1021.74 1021.58 1021.86 1022.31 1022.56 1022.91 1023.39 1023.74 1024.14 1024.36 1024.64 1024.95 1024.99 1024.92 1024.67 1024.38 1024.03 1023.65 1023.41 1023.06 1022.59 1022.21 1021.98 1022.01 1022.07 1022.19 1022.32 1022.38 1022.41 1022.30
1027.74 1027.79 1027.29 1026.75 1025.81 1024.47 1024.07 1024.63 1025.57 1026.17 1025.16 1025.30 1025.00 1024.52 1024.27 1023.66 1023.24 1023.30 1023.36 1023.23 1023.53 1024.02 1024.35 1024.74 1024.97 1024.99 1025.08 1025.01 1024.82 1024.43 1024.01 1023.77 1023.50 1023.08 1022.67 1022.22 1021.91 1021.59 1021.45 1021.57 1021.69 1021.89 1021.99 1021.89
1027.04 1026.47 1026.35 1025.93 1024.46 1024.47 1025.09 1026.29 1027.33 1027.48 1027.28 1026.99 1027.11 1026.77 1026.30 1026.00 1025.52 1025.31 1024.87 1024.45 1024.32 1024.51 1024.72 1024.89 1025.09 1025.05 1025.07 1024.98 1024.83 1024.42 1024.11 1024.06 1023.79 1023.57 1022.98 1022.34 1021.77 1021.38 1021.15 1020.96 1020.93 1021.06 1021.14 1021.22
1026.35 1026.43 1026.61 1026.12 1025.05 1025.34 1026.01 1027.22 1027.85 1028.33 1028.59 1028.79 1028.83 1028.67 1028.22 1027.72 1027.27 1026.76 1026.28 1025.96 1025.68 1025.65 1025.57 1025.70 1025.84 1025.68 1025.38 1025.21 1025.06 1024.82 1024.57 1024.37 1024.24 1023.75 1023.03 1022.33 1021.56 1020.97 1020.64 1020.48 1020.22 1020.18 1020.19 1020.28
1026.01 1027.00 1026.59 1026.37 1026.01 1026.59 1026.51 1027.51 1028.54 1029.02 1029.51 1029.84 1029.99 1029.74 1029.42 1029.15 1028.52 1028.02 1027.53 1027.28 1026.86 1026.59 1026.50 1026.62 1026.49 1026.15 1025.71 1025.58 1025.25 1025.10 1024.96 1024.88 1024.52 1023.85 1023.07 1022.23 1021.51 1020.79 1020.14 1019.69 1019.50 1019.32 1019.14 1019.21
1026.21 1026.86 1027.46 1027.14 1027.90 1028.74 1028.52 1028.81 1029.46 1029.89 1030.53 1030.77 1030.69 1030.26 1030.23 1030.11 1029.74 1029.43 1028.69 1028.25 1027.93 1027.60 1027.43 1027.24 1027.05 1026.65 1026.05 1025.73 1025.29 1025.16 1025.08 1024.93 1024.58 1023.84 1023.06 1022.15 1021.31 1020.52 1019.80 1019.23 1018.74 1018.48 1018.54 1018.66
Wind_Speed
1 5 8 7 7 9 9 11 14 13 6 7 15 18 15 10 7 7 5 5 6 7 8 11 11 11 12 12 13 12 12 14 7 2 2 2 2 2 2 4 7 8 8 6
5 9 3 2 4 6 9 12 15 12 7 6 14 18 17 14 11 6 5 2 4 6 8 10 12 12 12 13 13 13 13 13 10 7 4 2 2 3 3 3 5 7 8 7
10 4 3 3 5 7 11 13 14 15 12 14 15 18 20 13 4 5 4 1 2 5 8 10 12 14 13 14 14 12 12 12 12 12 4 3 3 4 2 3 3 3 6 7
8 3 6 8 11 9 11 5 10 11 9 6 1 10 14 9 10 10 6 5 2 4 7 9 11 13 15 13 12 13 12 12 11 12 8 7 4 2 3 2 2 3 5 5
3 3 5 6 6 5 3 3 4 8 12 14 13 8 6 3 12 12 9 5 3 4 6 8 10 11 12 13 13 13 13 13 11 12 11 8 7 5 3 3 4 4 4 4
13 1 4 9 3 7 3 4 6 5 7 8 15 14 9 6 3 8 10 7 5 4 4 6 8 9 11 12 12 12 14 14 14 13 11 11 9 7 5 4 2 2 2 3
3 10 3 5 8 3 6 6 4 5 5 7 6 8 14 6 4 4 10 9 7 4 4 6 8 9 10 12 12 11 13 14 13 14 13 12 10 8 7 5 3 2 2 1
5 4 5 6 9 6 7 8 5 7 9 12 4 7 3 5 3 2 9 9 7 5 4 4 6 7 8 10 11 12 12 13 14 13 12 11 12 7 7 5 2 3 3 3
3 3 3 2 2 3 3 6 6 11 10 7 11 17 4 4 3 5 7 9 9 7 4 3 4 6 7 8 9 9 10 10 11 12 10 11 11 11 9 9 8 5 1 1
3 6 2 3 2 6 6 5 4 4 7 16 14 17 13 7 8 9 11 11 10 7 5 3 4 5 5 4 5 6 7 8 9 9 9 9 10 10 10 9 10 9 8 7
1 2 2 1 7 8 5 5 7 8 9 14 17 13 3 1 7 12 13 13 11 8 5 2 3 6 5 4 4 4 5 7 7 8 8 9 9 9 9 9 9 9 9 9
2 2 6 11 3 3 4 8 12 11 17 15 14 16 5 1 5 9 12 11 10 8 6 3 5 7 6 5 5 5 3 3 4 6 7 7 7 8 9 9 9 10 10 10
4 4 5 4 4 4 6 9 12 8 4 18 16 17 7 3 4 7 9 9 8 9 7 4 6 6 6 5 5 6 5 4 3 4 4 5 6 7 6 6 6 8 8 8
2 4 8 12 17 9 8 10 10 9 9 15 17 22 15 9 6 6 7 10 11 11 8 5 5 6 6 5 6 6 6 4 4 3 2 2 4 5 5 5 6 6 6 7
3 6 6 12 18 16 18 19 20 18 18 15 23 19 16 9 5 5 7 9 10 10 6 4 6 6 7 6 6 5 6 6 4 4 2 2 2 1 2 3 4 5 5 5
4 4 1 7 12 11 18 21 21 24 23 22 26 30 18 19 15 10 7 4 7 3 5 4 4 4 6 5 6 5 6 6 5 5 5 3 2 2 3 3 3 5 6 5
6 4 2 9 5 8 12 14 19 19 18 13 19 25 16 13 12 5 4 5 7 5 3 4 5 4 5 5 6 7 6 4 5 6 5 4 3 3 3 2 2 3 4 5
4 4 3 7 1 11 6 3 8 11 15 17 18 18 19 10 7 4 3 5 4 2 4 5 4 4 5 5 4 5 6 7 6 6 5 5 5 5 4 3 3 2 2 4
5 4 5 5 9 17 18 9 7 10 19 15 17 15 15 14 5 11 8 5 5 5 4 4 2 3 5 5 5 4 7 6 5 7 9 10 8 6 5 4 4 2 3 3
4 5 6 5 7 11 12 9 2 5 15 13 14 15 13 12 9 7 3 3 4 6 4 3 2 1 3 4 4 5 6 5 7 7 10 8 5 5 6 5 4 3 3 4
4 6 14 13 13 12 9 6 0 9 13 15 13 13 14 13 5 2 1 2 3 1 2 4 2 2 3 4 4 6 7 7 7 8 9 8 4 6 6 6 5 4 4 4
7 6 5 5 7 14 9 0 6 9 12 13 14 17 18 18 16 13 10 7 6 6 2 3 4 3 3 3 6 7 7 5 8 8 9 9 6 6 5 6 5 5 5 5
5 6 4 5 7 9 7 5 6 9 10 12 13 14 13 15 15 13 13 12 10 10 9 7 9 11 8 7 9 11 8 9 9 9 9 9 9 8 7 7 7 6 6 5
5 5 5 7 3 11 8 4 8 9 9 10 11 12 13 14 15 15 13 12 12 11 11 8 10 12 13 11 11 10 10 10 9 11 11 9 9 8 7 7 6 6 6 6
4 4 6 10 14 10 6 9 11 11 10 12 14 15 13 14 15 16 14 14 13 12 11 9 10 12 14 13 12 9 9 8 10 10 11 10 8 9 8 8 8 8 8 7
4 3 5 8 8 5 10 12 15 13 14 18 20 17 16 15 16 17 15 14 13 12 11 11 12 14 15 13 12 10 8 8 9 11 9 8 8 7 7 7 8 16 16 13
Wind_Direction
141 239 232 264 247 315 294 284 279 281 288 294 268 275 282 268 252 260 286 321 343 357 0 5 3 5 0 10 10 4 5 0 347 120 101 96 101 86 77 96 118 118 121 141
213 246 12 347 285 264 263 270 271 284 291 267 282 280 277 260 234 263 278 301 358 3 8 15 12 15 15 13 17 17 10 8 9 12 34 48 98 85 89 102 117 134 140 139
265 29 69 231 243 259 256 268 280 283 301 269 272 278 258 233 189 206 214 203 37 28 17 19 23 21 20 21 15 24 21 17 19 359 14 63 82 74 81 107 122 144 142 140
270 53 253 265 266 270 284 316 269 278 287 279 149 290 290 198 203 209 194 193 107 51 46 34 27 27 24 22 23 24 31 29 25 16 13 20 25 66 41 96 103 105 115 121
68 211 224 248 255 227 291 348 286 279 278 290 265 248 275 226 215 204 194 172 131 70 49 47 37 32 32 25 26 29 31 36 40 36 30 21 27 35 33 60 102 111 106 118
270 100 264 247 311 251 8 281 263 267 276 257 256 235 277 296 286 207 169 180 153 103 74 60 54 40 37 31 28 29 35 36 35 41 41 39 28 19 36 40 55 70 102 144
214 217 209 251 252 187 228 264 281 238 216 256 26 289 250 320 18 314 176 173 154 139 88 52 41 36 35 32 27 25 25 30 31 38 39 39 36 36 39 19 15 33 126 139
279 231 202 157 244 332 215 219 262 287 293 314 109 251 299 22 350 251 158 157 153 155 130 64 48 40 33 32 29 24 25 26 22 28 31 33 37 33 29 24 48 8 354 336
275 230 114 27 337 278 101 223 286 284 263 270 263 274 188 93 118 155 168 182 177 165 160 107 57 42 29 24 29 28 25 27 26 25 20 24 27 32 25 20 15 13 99 316
65 282 70 74 246 223 245 11 248 201 269 271 274 278 271 183 200 203 198 202 187 177 175 135 54 21 14 10 12 23 29 30 27 24 27 24 18 17 21 21 18 9 2 350
242 252 152 185 206 270 196 230 224 281 264 276 281 270 49 289 217 209 213 209 197 190 182 155 2 354 334 323 347 9 22 19 19 24 24 25 25 18 18 19 11 4 357 352
152 254 265 275 65 313 285 279 267 248 264 250 260 270 151 197 282 233 217 213 203 198 196 247 319 336 332 320 325 338 355 13 14 16 15 24 23 22 19 14 5 359 355 349
184 197 288 248 224 213 246 242 240 273 289 261 266 274 104 286 275 257 240 215 198 214 218 286 323 330 333 323 322 315 315 324 344 7 12 17 15 21 11 358 353 354 350 342
159 214 240 265 285 333 274 263 253 231 260 270 258 274 276 237 241 245 242 231 216 219 230 288 297 315 320 320 312 305 294 285 285 290 328 9 4 4 355 344 349 344 342 347
234 243 228 258 274 286 278 273 266 253 246 254 270 273 268 285 263 240 250 246 225 225 260 282 311 314 312 314 303 303 291 280 267 269 217 241 292 300 307 337 340 339 343 341
188 259 334 278 270 274 275 267 267 259 255 258 260 265 270 278 273 239 227 257 260 249 241 268 286 302 304 297 294 279 271 276 262 238 238 222 235 274 294 328 334 338 336 341
179 218 189 269 25 307 272 264 258 255 249 251 258 263 299 286 282 301 260 241 245 234 274 295 294 281 288 289 282 291 300 292 249 252 238 210 231 247 253 269 319 319 335 331
179 181 235 280 337 265 273 326 275 283 277 273 260 269 274 272 276 289 216 237 229 248 275 280 276 292 300 301 304 288 288 281 262 250 249 220 213 230 242 243 268 290 315 327
235 214 245 249 249 281 298 302 317 265 282 291 296 278 275 274 290 278 211 211 231 243 244 248 262 264 289 302 300 299 298 291 284 264 244 229 210 212 205 224 239 261 285 312
238 262 242 208 257 269 296 8 21 300 282 297 279 288 294 307 282 296 108 163 239 249 246 269 261 235 284 312 322 318 303 303 291 282 273 264 227 211 205 210 204 225 247 272
165 211 229 243 251 257 292 337 72 266 312 358 334 312 303 285 272 43 126 282 314 293 308 326 348 309 298 316 325 321 311 307 308 305 296 278 225 213 215 211 211 205 230 257
191 195 205 227 251 272 18 146 270 345 329 353 349 344 347 338 330 328 324 331 349 335 358 33 337 327 309 298 326 313 313 345 333 326 315 306 270 242 224 209 207 212 226 245
240 221 277 233 271 351 343 56 38 8 347 346 341 335 338 323 320 324 315 315 318 321 326 340 334 323 322 325 322 311 315 325 327 326 314 307 294 275 248 223 214 216 215 227
229 184 242 295 235 298 344 52 21 3 348 339 333 328 323 314 313 313 317 315 316 315 313 331 324 309 307 314 312 305 313 318 322 309 305 304 295 285 261 241 226 219 213 213
283 156 248 270 285 330 279 14 356 336 335 329 328 317 311 310 308 312 313 310 308 310 312 313 307 302 300 305 301 303 306 311 299 298 296 290 282 276 268 249 236 226 224 207
181 237 259 289 360 292 296 334 330 324 330 324 319 315 314 308 306 308 301 305 307 303 304 299 295 293 294 295 292 292 291 288 285 286 285 282 284 281 270 256 256 238 241 230